Location: Niedergestelen
(46.3129°N, 7.7822°E)
Time: 14:10:40
(UTC+00:00)

H-2A R/B - Pass Details

Date: 01 December 2020
Orbit: 578 x 654 km, 98.5° (Epoch: 27 January)

Event Time Altitude Azimuth Distance (km) Brightness Sun altitude
Rises 16:15:25 0° 20° (NNE) 2,848 5.0 -5.6°
Reaches altitude 10° 16:17:40 10° 27° (NNE) 1,952 4.1 -5.9°
Maximum altitude 16:21:43 43° 100° (E) 859 2.5 -6.5°
Drops below altitude 10° 16:25:50 10° 172° (S) 1,981 4.9 -7.2°
Sets 16:28:07 0° 179° (S) 2,896 5.8 -7.6°
